| time (UTC) | temp C | wind direction | speed KPH | gust KPH | rain 1hr cm | rain 24hr cm | rain mn cm | humidity % | barometer mb |
| 20260505111526 | 10 | 313 | 30.6 | 38.6 | 0.00 | 0.20 | 0.13 | 65 | 1000.1 |
| 20260505110625 | 10 | 271 | 29.0 | 40.2 | 0.00 | 0.20 | 0.13 | 63 | 1000.3 |
| 20260505102125 | 11 | 267 | 27.4 | 38.6 | 0.00 | 0.36 | 0.13 | 63 | 999.7 |
| 20260505101436 | 10 | 283 | 27.4 | 32.2 | 0.00 | 0.38 | 0.13 | 64 | 999.7 |
| 20260505100539 | 10 | 313 | 25.7 | 38.6 | 0.00 | 0.38 | 0.13 | 62 | 999.5 |
| 20260505095636 | 11 | 300 | 32.2 | 38.6 | 0.00 | 0.38 | 0.13 | 61 | 999.2 |
| 20260505094525 | 11 | 288 | 27.4 | 35.4 | 0.00 | 0.43 | 0.13 | 58 | 999.2 |
| 20260505093625 | 11 | 305 | 29.0 | 43.5 | 0.00 | 0.43 | 0.13 | 58 | 999.0 |
| 20260505092727 | 11 | 279 | 29.0 | 45.1 | 0.00 | 0.43 | 0.13 | 58 | 998.8 |
| 20260505091825 | 11 | 291 | 32.2 | 45.1 | 0.00 | 0.43 | 0.13 | 59 | 998.8 |
| 20260505090926 | 11 | 294 | 33.8 | 43.5 | 0.00 | 0.46 | 0.13 | 60 | 998.8 |
| 20260505090025 | 11 | 289 | 29.0 | 38.6 | 0.00 | 0.46 | 0.13 | 59 | 998.5 |
| 20260505085125 | 12 | 282 | 32.2 | 38.6 | 0.00 | 0.46 | 0.13 | 58 | 998.4 |
| 20260505084226 | 11 | 301 | 35.4 | 43.5 | 0.00 | 0.46 | 0.13 | 59 | 998.3 |
| 20260505083325 | 11 | 287 | 30.6 | 43.5 | 0.00 | 0.46 | 0.13 | 59 | 998.4 |
| 20260505082425 | 11 | 283 | 27.4 | 38.6 | 0.00 | 0.46 | 0.13 | 60 | 998.1 |
| 20260505081525 | 11 | 291 | 30.6 | 41.8 | 0.00 | 0.46 | 0.13 | 60 | 998.3 |
| 20260505080625 | 11 | 307 | 29.0 | 37.0 | 0.00 | 0.46 | 0.13 | 61 | 998.3 |
| 20260505075727 | 11 | 279 | 29.0 | 37.0 | 0.00 | 0.46 | 0.13 | 61 | 998.0 |
| 20260505074825 | 11 | 302 | 32.2 | 43.5 | 0.00 | 0.46 | 0.13 | 60 | 998.2 |
| 20260505073926 | 11 | 280 | 33.8 | 41.8 | 0.00 | 0.46 | 0.13 | 59 | 997.9 |
| 20260505073027 | 11 | 279 | 29.0 | 37.0 | 0.00 | 0.46 | 0.13 | 57 | 998.0 |
| 20260505072126 | 12 | 295 | 25.7 | 33.8 | 0.00 | 0.46 | 0.13 | 55 | 997.9 |
| 20260505071227 | 12 | 302 | 25.7 | 33.8 | 0.00 | 0.46 | 0.13 | 55 | 997.7 |
| 20260505070325 | 12 | 282 | 22.5 | 35.4 | 0.00 | 0.46 | 0.13 | 55 | 997.6 |
| 20260505065425 | 12 | 264 | 20.9 | 33.8 | 0.00 | 0.46 | 0.13 | 55 | 997.5 |
| 20260505064525 | 12 | 285 | 29.0 | 35.4 | 0.00 | 0.46 | 0.13 | 58 | 997.6 |
| 20260505063625 | 12 | 263 | 22.5 | 27.4 | 0.00 | 0.46 | 0.13 | 57 | 997.7 |
| 20260505061802 | 12 | 254 | 24.1 | 33.8 | 0.00 | 0.46 | 0.13 | 57 | 997.6 |
| 20260505060904 | 12 | 235 | 19.3 | 33.8 | 0.00 | 0.46 | 0.13 | 58 | 997.4 |
| 20260505060003 | 12 | 236 | 20.9 | 30.6 | 0.00 | 0.46 | 0.13 | 60 | 997.4 |
| 20260505055102 | 12 | 262 | 24.1 | 33.8 | 0.00 | 0.46 | 0.13 | 59 | 997.4 |
| 20260505054203 | 12 | 269 | 19.3 | 24.1 | 0.00 | 0.46 | 0.13 | 61 | 997.2 |
| 20260505053515 | 12 | 237 | 19.3 | 29.0 | 0.00 | 0.46 | 0.13 | 62 | 997.3 |
| 20260505052404 | 12 | 231 | 19.3 | 27.4 | 0.00 | 0.46 | 0.13 | 68 | 997.1 |
| 20260505051502 | 11 | 190 | 22.5 | 29.0 | 0.00 | 0.46 | 0.13 | 68 | 997.1 |
| 20260505050812 | 11 | 216 | 20.9 | 29.0 | 0.00 | 0.46 | 0.13 | 70 | 997.3 |
| 20260505041416 | 8 | 219 | 16.1 | 22.5 | 0.00 | 0.46 | 0.13 | 91 | 997.4 |
| 20260505040513 | 7 | 211 | 17.7 | 24.1 | 0.00 | 0.46 | 0.13 | 90 | 997.4 |
| 20260505035402 | 8 | 196 | 20.9 | 25.7 | 0.00 | 0.46 | 0.13 | 92 | 997.4 |
| 20260505034502 | 8 | 206 | 14.5 | 22.5 | 0.00 | 0.46 | 0.13 | 94 | 997.5 |
| 20260505033815 | 8 | 217 | 16.1 | 20.9 | 0.00 | 0.46 | 0.13 | 95 | 997.5 |
| 20260505032702 | 7 | 216 | 14.5 | 24.1 | 0.00 | 0.46 | 0.13 | 97 | 997.4 |
| 20260505032015 | 7 | 222 | 14.5 | 22.5 | 0.00 | 0.46 | 0.13 | 97 | 997.5 |
| 20260505030903 | 7 | 208 | 12.9 | 17.7 | 0.00 | 0.46 | 0.13 | 97 | 997.3 |
| 20260505030003 | 7 | 218 | 11.3 | 16.1 | 0.00 | 0.46 | 0.13 | 97 | 997.5 |
| 20260505025312 | 7 | 208 | 12.9 | 14.5 | 0.00 | 0.46 | 0.13 | 97 | 997.6 |
| 20260505024414 | 6 | 215 | 11.3 | 16.1 | 0.00 | 0.46 | 0.13 | 98 | 997.6 |
| 20260505023512 | 7 | 210 | 12.9 | 19.3 | 0.00 | 0.46 | 0.13 | 97 | 997.5 |
| 20260505022403 | 7 | 225 | 12.9 | 17.7 | 0.00 | 0.46 | 0.13 | 97 | 997.5 |
| 20260505021711 | 7 | 216 | 12.9 | 17.7 | 0.00 | 0.46 | 0.13 | 97 | 997.4 |
| 20260505020602 | 7 | 262 | 14.5 | 19.3 | 0.00 | 0.46 | 0.13 | 97 | 997.6 |
| 20260505015916 | 7 | 235 | 12.9 | 17.7 | 0.00 | 0.46 | 0.13 | 97 | 997.6 |
| 20260505014802 | 7 | 203 | 11.3 | 17.7 | 0.00 | 0.46 | 0.13 | 97 | 997.6 |
| 20260505013904 | 7 | 219 | 11.3 | 16.1 | 0.00 | 0.46 | 0.13 | 97 | 997.8 |
| 20260505013213 | 7 | 208 | 11.3 | 17.7 | 0.00 | 0.46 | 0.13 | 96 | 997.9 |
| 20260505012316 | 7 | 213 | 11.3 | 14.5 | 0.00 | 0.46 | 0.13 | 96 | 997.7 |
| 20260505011413 | 7 | 227 | 14.5 | 20.9 | 0.00 | 0.46 | 0.13 | 96 | 997.7 |
| 20260505010302 | 7 | 219 | 16.1 | 20.9 | 0.00 | 0.46 | 0.13 | 96 | 997.8 |
| 20260505005612 | 7 | 228 | 16.1 | 22.5 | 0.00 | 0.46 | 0.13 | 95 | 997.9 |
| 20260505004715 | 7 | 216 | 16.1 | 24.1 | 0.00 | 0.46 | 0.13 | 95 | 997.9 |
| 20260505003812 | 7 | 240 | 17.7 | 24.1 | 0.00 | 0.46 | 0.13 | 96 | 997.9 |
| 20260505002915 | 7 | 202 | 17.7 | 24.1 | 0.00 | 0.46 | 0.13 | 96 | 997.8 |
| 20260505001802 | 7 | 228 | 16.1 | 24.1 | 0.13 | 0.46 | 0.13 | 97 | 997.9 |
| 20260505001114 | 7 | 234 | 12.9 | 16.1 | 0.13 | 0.46 | 0.13 | 97 | 997.7 |
| 20260505000003 | 7 | 224 | 17.7 | 27.4 | 0.13 | 0.46 | 0.13 | 97 | 998.0 |
| 20260504235102 | 7 | 231 | 14.5 | 27.4 | 0.13 | 0.46 | 0.13 | 97 | 997.9 |
| 20260504234202 | 7 | 219 | 16.1 | 20.9 | 0.13 | 0.46 | 0.13 | 97 | 997.7 |
| 20260504233303 | 7 | 216 | 16.1 | 20.9 | 0.13 | 0.46 | 0.13 | 98 | 998.0 |
| 20260504192226 | 7 | 14 | 4.8 | 6.4 | 0.00 | 0.33 | 0.33 | 94 | 997.0 |
| 20260504191326 | 7 | 14 | 4.8 | 6.4 | 0.00 | 0.33 | 0.33 | 94 | 997.0 |
| 20260504190426 | 7 | 14 | 4.8 | 6.4 | 0.00 | 0.33 | 0.33 | 94 | 997.0 |
| 20260504185741 | 7 | 14 | 4.8 | 6.4 | 0.00 | 0.33 | 0.33 | 94 | 997.0 |
| 20260504184626 | 7 | 14 | 4.8 | 6.4 | 0.00 | 0.33 | 0.33 | 94 | 997.0 |
| 20260504183726 | 7 | 14 | 4.8 | 6.4 | 0.00 | 0.33 | 0.33 | 94 | 997.0 |
| 20260504183038 | 7 | 14 | 4.8 | 6.4 | 0.00 | 0.33 | 0.33 | 94 | 997.0 |
| 20260504182140 | 7 | 14 | 4.8 | 6.4 | 0.00 | 0.33 | 0.33 | 94 | 997.0 |
| 20260504181027 | 7 | 14 | 4.8 | 6.4 | 0.00 | 0.33 | 0.33 | 94 | 997.0 |
| 20260504180126 | 7 | 14 | 4.8 | 6.4 | 0.00 | 0.33 | 0.33 | 94 | 997.0 |
| 20260504175227 | 7 | 14 | 4.8 | 6.4 | 0.00 | 0.33 | 0.33 | 94 | 997.0 |
| 20260504174327 | 7 | 14 | 4.8 | 6.4 | 0.00 | 0.33 | 0.33 | 94 | 997.0 |
| 20260504173637 | 7 | 14 | 4.8 | 6.4 | 0.00 | 0.33 | 0.33 | 94 | 997.0 |
| 20260504172526 | 7 | 14 | 4.8 | 6.4 | 0.00 | 0.33 | 0.33 | 94 | 997.0 |
| 20260504171626 | 7 | 14 | 4.8 | 6.4 | 0.00 | 0.33 | 0.33 | 94 | 997.0 |
| 20260504170726 | 7 | 14 | 4.8 | 6.4 | 0.00 | 0.33 | 0.33 | 94 | 997.0 |
| 20260504160426 | 7 | 14 | 4.8 | 6.4 | 0.00 | 0.33 | 0.33 | 94 | 997.0 |
| 20260504151026 | 7 | 14 | 4.8 | 6.4 | 0.00 | 0.33 | 0.33 | 94 | 997.0 |
| 20260504150126 | 7 | 14 | 4.8 | 6.4 | 0.00 | 0.33 | 0.33 | 94 | 997.0 |
| 20260504140726 | 7 | 14 | 4.8 | 6.4 | 0.00 | 0.33 | 0.33 | 94 | 997.0 |
| 20260504130427 | 7 | 14 | 4.8 | 6.4 | 0.00 | 0.33 | 0.33 | 94 | 997.0 |
| 20260504120126 | 7 | 14 | 4.8 | 6.4 | 0.13 | 0.33 | 0.33 | 94 | 997.0 |